Hourly Weather Roundup
Issued by NWS Central Illinois

Home | Current Version | Previous Version | Text Only | Print | Product List | Glossary On
Versions: 1 2 3 4 5 6 7 8 9 10 11 12 13 14 15 16 17 18 19 20 21 22 23 24 25 26 27 28 29 30 31 32 33 34 35 36 37 38 39 40 41 42 43 44 45 46 47 48 49 50
000
NZUS43 KILX 041610
HWRILX

AREA WEATHER ROUNDUP
NATIONAL WEATHER SERVICE, LINCOLN IL
1100 AM CDT FRI SEP 04 2015


CITY           SKY/WX    TMP DP  RH WIND       PRES   REMARKS
BLOOMINGTON    MOSUNNY   87  71  58 CALM      30.06R HX  92
CHAMPAIGN      SUNNY     89  69  51 SW6       30.05R HX  93
DANVILLE       MOSUNNY   87  73  62 W7        30.02S HX  94
DECATUR        SUNNY     89  69  51 W6        30.05R HX  93
EFFINGHAM      SUNNY     88  66  48 SW3       30.06S HX  90
FLORA          SUNNY     88  68  51 SW3       30.05S HX  91
GALESBURG      SUNNY     87  70  57 SW3       30.03S HX  91
JACKSONVILLE   SUNNY     91  71  52 W3        30.04R HX  97
LACON          SUNNY     84  70  63 SW3       30.01S HX  88
LAWRENCEVILLE  SUNNY     89  69  51 VRB7      30.05S HX  93
LITCHFIELD     SUNNY     88  66  48 SW7       30.05S HX  90
$$


CITY           SKY/WX    TMP DP  RH WIND       PRES   REMARKS
LINCOLN        MOSUNNY   88  70  55 CALM      30.02S HX  92
MACOMB         SUNNY     87  70  56 NW6       30.05S HX  91
MATTOON        SUNNY     88  66  48 VRB3      30.04  HX  90
MT CARMEL AP   SUNNY     88  64  45 SW3       30.05S HX  89
OLNEY-NOBLE AP SUNNY     88  70  55 S3        30.05S HX  92
PARIS          SUNNY     88  69  52 CALM      30.05S HX  92
PEORIA         SUNNY     89  70  53 VRB3      30.03S HX  94
PONTIAC        MOSUNNY   86  74  67 W7        30.04R HX  94
RANTOUL        NOT AVBL
ROBINSON       SUNNY     88  70  56 W3        30.05S HX  93
SPRINGFIELD    SUNNY     90  70  51 SW6       30.04R HX  95
TAYLORVILLE    MOSUNNY   88  68  51 SW6       30.04S HX  91
$$

...REGIONAL REPORTS...


CITY           SKY/WX    TMP DP  RH WIND       PRES   REMARKS
CHICAGO O`HARE MOSUNNY   76  66  71 VRB3      30.03S
KANKAKEE       CLOUDY    80  71  74 CALM      30.04S HX  84
MOLINE         MOSUNNY   87  70  56 NW3       30.01S HX  92
MOUNT STERLING SUNNY     85  71  60 W6        30.04R HX  90
MOUNT VERNON   SUNNY     88  70  55 CALM      30.06S HX  92
PITTSFIELD     SUNNY     88  67  48 SW7       30.05S HX  91
QUINCY         SUNNY     87  69  54 W7        30.04R HX  91
ROCKFORD       MOSUNNY   80  69  69 SE5       30.05S HX  83
$$


CITY           SKY/WX    TMP DP  RH WIND       PRES   REMARKS
BURLINGTON     SUNNY     87  73  62 SW7       30.02S HX  94
CEDAR RAPIDS   SUNNY     83  73  72 SW7       30.01S HX  89
DES MOINES     PTSUNNY   85  70  60 S13       29.96F HX  89
KIRKSVILLE     SUNNY     86  70  58 S9        30.04R HX  90
OTTUMWA        SUNNY     85  72  65 S7        29.99F HX  91
ST LOUIS       PTSUNNY   90  70  51 SW6       30.05S HX  95
$$


CITY           SKY/WX    TMP DP  RH WIND       PRES   REMARKS
TERRE HAUTE    SUNNY     88  69  53 W8        30.05R HX  92
EVANSVILLE     SUNNY     89  68  49 VRB3      30.06R HX  93
INDIANAPOLIS   MOSUNNY   88  67  49 W8        30.05R HX  91
LAFAYETTE      SUNNY     88  67  49 W5        30.02S HX  91
MADISON        PTSUNNY   75  66  73 E5        30.04S
MILWAUKEE      MOSUNNY   73  65  75 NE10      30.05R
$$





USA.gov is the U.S. government's official web portal to all federal, state and local government web resources and services.